Vorticity
5 10 7 6 10 8 3 4 4 3 5 8 7 8 7 8 9 5 5 7 5 6 7 5 6 10 12 8 6 7 9 11 10 8 3 1 2 1 1 2 2 2 1 1 3 4 4 6 7 7 7 9 10 11 10 9 10 9 7 7 8 9 9 10 10 11 12 11 12 11 11 10 8 8 7 6 7 7 7 7 6 7 7 8 9 9
5 8 7 7 11 8 3 5 5 2 3 6 6 6 7 8 7 4 4 6 5 4 4 4 5 7 9 6 6 9 11 8 5 3 -1 -1 1 2 4 6 6 6 6 5 7 7 7 8 8 8 8 7 6 7 8 10 12 12 12 11 11 11 11 10 10 10 9 10 11 10 10 9 9 8 8 8 8 8 8 8 8 8 9 10 10 10
5 8 7 7 9 6 6 7 6 2 1 5 5 5 7 7 5 4 4 5 5 3 3 4 4 4 5 6 7 10 9 6 3 4 2 2 2 2 4 5 7 8 8 9 9 9 10 9 9 9 9 8 6 6 7 9 9 10 12 12 11 10 9 8 7 7 8 8 9 9 9 9 9 10 10 10 10 10 10 9 10 10 10 11 11 11
6 7 6 7 8 8 9 8 6 3 2 3 2 4 7 6 4 4 4 3 4 3 2 3 3 3 3 6 8 7 3 1 2 3 4 5 4 1 0 2 5 6 6 7 8 7 7 6 5 5 6 8 9 8 7 5 2 1 3 6 8 8 8 8 7 7 8 7 7 8 9 9 10 11 12 13 13 13 13 13 13 13 13 13 12 12
7 5 5 8 9 9 9 9 8 4 3 3 3 4 5 4 4 3 2 3 3 3 3 3 2 2 3 4 5 2 -3 -5 -4 1 5 4 1 -0 1 1 1 3 3 3 4 6 6 4 3 1 0 2 6 11 11 6 4 5 5 5 6 8 11 13 13 11 10 9 8 8 8 8 9 9 9 11 12 12 13 13 13 12 11 11 10 9
6 4 6 9 8 8 9 11 9 4 4 5 5 5 3 2 3 2 2 2 2 2 2 3 1 0 2 2 0 -2 -4 -4 -3 1 3 0 -3 -1 1 -0 -1 0 1 0 1 5 7 5 3 1 -0 -1 1 7 10 10 10 12 13 10 8 8 9 11 12 12 11 10 9 9 8 8 9 8 8 8 8 8 10 10 9 9 9 9 9 9
6 5 7 8 8 10 11 11 9 6 6 6 7 5 2 3 2 2 3 2 1 1 1 4 2 -2 -0 2 1 -0 -1 0 2 3 5 4 3 3 3 1 1 3 3 2 1 3 7 6 4 3 2 1 2 3 5 8 8 7 7 8 8 7 5 5 6 7 8 10 11 11 11 9 9 8 8 9 8 8 9 9 8 8 9 10 11 12
5 6 8 8 9 10 10 10 9 8 7 7 8 6 4 4 3 3 5 2 2 1 -0 5 5 -1 0 3 2 1 1 2 3 5 8 8 6 4 2 2 4 5 3 2 2 3 7 9 7 4 1 1 3 4 5 6 6 4 3 3 5 6 7 7 6 4 4 6 7 9 9 8 9 8 8 8 9 10 10 9 9 9 9 9 10 10
6 9 10 8 9 9 9 9 9 9 9 9 9 9 8 8 7 7 6 4 6 2 -0 6 7 2 2 2 2 3 3 5 4 3 3 4 4 6 7 8 7 5 0 -2 -2 1 7 9 5 2 0 0 3 5 7 6 3 3 4 4 3 5 8 6 4 2 1 2 2 3 6 8 9 9 8 7 8 9 9 9 9 9 9 10 9 10
8 9 8 8 9 9 8 9 9 9 10 10 10 10 10 9 8 8 7 8 8 2 2 8 7 4 4 3 4 5 4 4 4 4 5 4 4 5 6 7 8 8 8 7 6 5 6 4 -1 -2 1 3 4 5 7 7 4 2 4 6 6 5 6 5 4 3 2 3 4 4 5 7 8 9 8 8 8 8 7 7 8 8 8 8 7 7
7 7 7 7 8 7 8 8 8 8 8 8 8 8 7 7 8 9 7 8 9 5 7 10 8 6 6 5 6 6 5 5 4 5 5 4 3 4 5 6 8 10 11 12 11 9 6 2 -1 1 4 6 6 6 6 7 7 5 6 8 8 7 5 4 4 4 6 6 6 8 9 7 6 7 6 8 9 9 8 7 6 6 5 5 5 5
5 5 5 6 5 6 6 6 6 6 6 6 5 5 5 5 5 6 6 6 6 6 8 8 6 7 6 5 7 6 6 6 5 4 3 3 3 4 5 9 9 6 6 6 5 4 3 3 3 4 5 5 5 6 6 7 8 9 8 8 9 8 5 2 2 4 9 9 7 8 9 10 9 6 4 6 8 9 9 7 4 1 -0 1 2 3
4 5 5 5 5 5 6 5 5 4 5 5 5 6 7 8 10 9 7 7 7 7 9 8 8 7 6 6 7 8 8 8 7 6 6 5 4 3 4 7 7 8 11 12 11 11 11 12 12 9 6 5 5 5 5 7 8 10 10 9 9 8 4 3 3 5 9 10 8 6 6 9 11 9 6 5 6 8 9 9 7 2 0 -0 1 2
5 5 5 5 4 5 6 6 6 6 6 6 7 7 7 10 13 13 12 12 10 10 9 8 7 6 7 9 8 8 9 8 8 9 9 8 7 7 6 6 6 9 15 20 28 32 25 20 17 14 11 8 6 6 6 6 6 4 6 7 8 9 7 5 5 6 8 8 6 4 3 5 8 10 9 7 6 6 6 8 9 7 5 3 2 3
6 6 7 8 7 7 7 7 6 7 7 6 6 6 6 7 7 8 12 12 12 12 9 10 12 13 15 17 15 14 13 12 13 13 14 14 13 11 9 8 7 7 8 10 15 14 5 5 14 19 20 18 13 10 8 6 5 2 1 3 8 12 10 7 7 6 7 7 5 2 -0 2 7 9 10 9 7 6 6 6 7 8 8 6 6 6
5 6 9 10 10 10 10 10 10 11 12 11 11 11 11 11 8 7 9 9 12 14 11 14 17 16 16 16 15 16 16 16 17 16 16 16 15 14 12 10 8 6 5 4 4 4 3 10 17 17 20 21 17 13 8 6 5 1 -2 2 11 18 15 12 11 6 4 5 6 4 2 -0 0 4 9 12 9 6 7 8 6 7 7 6 7 6
4 7 13 13 13 15 14 13 14 13 12 11 12 12 11 10 10 11 10 9 11 11 9 13 13 11 11 10 11 15 16 16 16 15 14 14 14 14 13 12 11 9 8 5 5 6 8 13 13 12 18 21 19 16 13 10 9 7 6 6 10 15 15 13 9 4 0 2 5 8 9 3 -2 2 7 10 12 7 4 5 6 6 7 7 6 6
8 8 14 16 13 11 9 10 10 8 9 10 11 11 11 12 12 13 13 13 14 11 9 11 12 10 10 11 16 18 17 17 16 14 13 12 11 11 10 9 9 8 8 7 5 4 2 2 4 7 12 15 15 15 17 19 16 16 19 15 7 2 3 4 3 2 2 4 6 9 11 7 1 4 7 8 13 12 4 3 5 4 4 5 5 5
11 7 9 11 9 8 10 11 11 10 11 11 10 10 12 12 11 11 10 12 14 13 11 11 9 9 10 12 15 14 13 14 13 13 12 11 11 11 10 11 10 10 11 11 11 10 8 4 1 -1 -1 3 5 4 9 16 16 12 12 11 6 1 1 2 2 3 2 1 4 7 10 9 2 2 7 7 10 14 9 2 3 5 4 3 3 3
8 6 6 11 13 12 14 13 10 11 10 9 10 11 11 10 10 10 8 10 14 13 12 14 11 10 12 13 12 11 12 11 9 10 11 11 12 13 14 15 16 16 16 15 15 16 16 15 13 10 7 6 5 0 -0 7 12 10 4 -2 -6 -6 -1 3 2 1 -1 -2 1 5 8 9 4 1 5 7 7 11 13 6 1 2 3 3 4 3
9 8 9 14 13 10 10 10 10 11 10 10 11 10 10 11 11 12 10 12 14 10 10 13 10 9 14 14 12 12 11 10 9 10 10 10 11 11 12 13 14 15 16 17 18 18 19 20 19 20 19 17 16 12 9 9 10 7 2 -5 -11 -13 -7 -2 -2 -4 -4 -2 4 8 8 8 6 1 1 6 5 4 10 12 8 6 5 5 5 5
11 10 9 10 9 8 8 8 8 10 10 11 9 9 11 11 12 13 12 13 13 7 9 12 5 7 16 16 12 12 11 10 11 10 10 12 13 13 14 14 14 15 15 16 17 18 18 19 19 20 20 20 20 19 19 20 19 15 9 4 2 2 3 4 4 3 3 5 7 10 10 10 9 4 1 4 6 4 5 8 9 9 7 6 7 7
8 7 7 8 9 10 10 10 11 11 9 8 8 10 12 11 13 13 12 14 11 7 12 12 3 7 17 15 12 13 12 12 12 12 14 14 14 14 14 15 15 14 14 14 15 15 15 15 16 16 17 18 19 19 18 19 22 23 21 18 15 13 13 12 14 15 14 13 10 9 11 12 11 8 3 2 4 6 4 4 7 8 6 5 5 4
8 9 11 12 11 9 8 9 9 8 6 7 9 11 12 12 14 13 12 13 9 9 15 11 4 10 16 14 12 12 11 12 12 12 12 11 11 12 13 13 13 12 13 13 12 12 12 11 12 12 14 16 18 19 20 19 19 19 19 20 19 17 15 12 12 13 13 12 11 9 8 9 10 10 6 3 3 5 5 4 5 4 2 0 -2 -2
9 10 12 12 12 12 9 6 5 6 6 8 11 11 10 11 11 9 10 10 7 9 13 9 7 12 14 12 11 10 9 10 10 10 11 12 12 13 12 12 11 11 11 11 10 10 9 10 11 11 11 12 12 14 15 17 20 20 19 18 16 16 16 16 15 13 9 6 8 10 9 9 10 11 9 6 3 4 6 6 5 3 -0 -3 -4 -3
9 9 9 8 9 12 12 12 13 11 10 11 12 12 12 12 10 10 10 9 8 9 11 10 11 12 12 10 9 8 9 9 10 12 13 13 14 14 13 12 12 11 11 10 10 11 11 12 13 13 13 13 13 13 13 14 16 19 22 23 21 16 12 11 14 17 14 7 4 6 9 11 13 14 14 13 10 8 6 6 6 3 0 -0 -1 -1
8 8 8 7 6 7 9 13 14 13 12 15 14 13 14 13 12 12 11 9 9 9 10 12 12 9 9 8 6 7 10 11 12 12 11 11 12 12 13 14 14 14 13 13 13 13 13 12 11 11 11 11 11 12 14 15 15 16 17 22 26 26 22 16 11 11 13 14 10 6 4 6 7 10 12 14 14 14 12 12 11 8 7 6 2 0
7 8 9 8 7 9 11 13 14 13 13 14 14 13 12 12 12 11 9 8 10 11 11 12 10 7 8 8 8 10 11 10 9 9 8 9 9 8 10 11 11 12 12 13 13 12 12 11 11 11 11 11 11 11 11 12 14 16 16 17 20 25 30 31 26 18 11 8 9 9 8 6 4 3 6 9 11 11 10 11 11 9 9 5 -1 -1
8 9 11 9 8 10 12 13 13 11 10 11 12 10 10 11 10 9 9 10 12 12 10 9 8 8 10 10 10 11 10 9 9 9 9 9 8 8 9 9 8 8 9 10 10 10 11 10 10 10 10 10 11 10 11 11 12 14 16 18 19 20 23 28 33 35 30 19 11 7 5 5 5 3 3 5 10 14 15 14 14 13 11 6 4 3
10 11 12 11 8 10 14 12 9 7 7 8 8 8 9 9 8 9 11 11 11 10 9 8 10 12 12 11 11 10 9 9 9 10 9 10 10 10 10 11 10 9 9 11 10 9 9 9 9 9 9 10 10 10 11 11 12 13 14 15 18 20 21 22 25 31 37 38 34 24 13 5 2 1 2 2 4 11 19 24 27 29 29 28 29 29
12 11 12 10 5 9 15 10 6 7 7 8 9 10 10 10 9 11 12 10 10 10 9 10 12 11 11 12 10 8 7 8 9 11 11 10 10 11 11 11 11 11 11 11 9 8 9 10 10 9 8 8 9 9 10 11 11 12 13 13 13 14 18 21 23 24 28 33 38 40 36 26 14 4 2 3 3 3 8 14 20 25 28 31 34 36
11 9 11 10 4 7 12 9 7 8 7 8 12 12 12 11 11 11 11 11 12 12 11 11 11 12 12 10 6 6 9 11 12 12 11 9 9 11 13 12 11 11 11 10 9 9 9 10 10 9 8 9 9 10 11 11 11 11 12 12 12 12 12 14 17 20 23 26 29 33 38 40 35 24 12 8 8 9 9 9 11 14 15 15 16 17
10 8 10 10 4 4 11 11 9 9 9 12 15 14 13 12 11 11 13 14 14 13 13 13 12 11 10 10 11 14 14 11 9 9 10 11 10 8 10 12 12 11 11 11 12 12 12 12 12 10 9 9 10 10 10 11 11 12 12 12 12 12 12 11 13 15 18 22 25 27 29 32 36 36 30 20 13 11 14 14 12 11 11 12 12 12
8 9 10 9 5 6 13 14 11 11 14 15 15 15 15 14 13 12 12 12 11 10 10 10 10 11 13 16 15 12 8 7 9 11 11 12 12 10 9 10 11 10 10 10 12 13 14 13 12 10 10 11 10 10 11 11 12 12 12 13 12 12 11 11 13 14 16 19 21 23 26 27 28 31 35 35 26 13 7 7 9 9 8 9 11 13
8 10 8 7 8 10 15 17 14 14 16 17 16 16 15 13 12 10 10 12 11 10 9 9 12 14 15 14 7 1 3 7 9 9 7 7 9 10 8 8 8 10 10 10 10 12 12 11 10 10 10 10 11 11 12 12 13 14 14 14 13 11 10 11 12 13 16 19 21 20 21 24 25 24 26 34 39 32 17 6 4 6 7 7 8 10
9 9 9 11 14 15 17 18 16 15 17 17 15 14 13 13 11 10 10 11 10 11 11 10 10 12 11 9 6 5 6 7 6 4 1 0 2 5 6 8 10 11 11 11 10 10 9 9 10 10 10 11 12 13 14 14 15 15 15 14 13 11 10 11 13 16 18 20 21 20 19 20 21 21 19 20 28 37 37 26 13 5 2 3 7 10
12 14 16 17 19 20 19 17 16 16 16 15 14 13 13 11 10 10 11 13 14 14 11 7 6 9 10 10 9 7 4 4 5 3 -1 -2 -1 2 5 8 11 12 11 9 9 9 9 10 10 10 11 12 13 13 14 15 16 16 14 13 12 12 12 13 14 17 21 23 24 23 22 20 18 19 19 17 16 21 30 37 34 23 9 -1 -1 3
16 19 21 20 20 22 19 15 15 16 15 14 12 11 11 12 13 14 14 15 15 10 6 5 7 9 10 8 6 5 4 4 4 3 2 3 5 7 8 9 12 14 14 13 12 11 11 11 11 12 13 14 15 15 16 17 17 16 14 13 12 12 11 13 17 22 27 31 33 33 29 25 22 20 19 20 20 18 18 23 32 36 33 23 10 1
23 24 24 23 22 21 17 15 16 16 13 11 11 12 15 16 16 15 11 10 10 7 5 6 8 8 9 9 9 8 7 7 8 8 9 12 15 19 23 23 21 20 18 17 16 15 15 14 14 15 16 16 16 17 17 18 17 14 13 12 13 12 11 16 25 31 33 33 34 35 33 29 27 25 22 20 21 22 22 20 21 26 34 40 37 24
28 26 25 24 22 20 19 18 15 12 11 12 14 16 15 11 11 14 11 8 8 8 6 8 9 9 10 10 8 6 7 10 14 15 19 25 28 30 31 31 30 28 24 22 20 19 18 18 18 18 17 16 17 17 17 17 14 12 13 13 11 11 17 25 29 28 26 25 23 22 23 22 20 20 20 19 18 19 21 22 22 22 23 29 38 41
27 26 23 22 21 20 17 13 11 13 16 15 13 12 10 10 16 18 12 7 8 9 9 12 10 7 7 5 4 9 9 6 9 18 26 30 31 28 26 26 27 28 28 27 26 24 22 21 20 19 18 17 17 17 16 14 13 14 13 10 10 16 23 26 22 17 15 14 13 13 14 16 17 17 18 19 20 21 22 22 24 25 25 25 27 33
23 20 20 20 18 15 11 10 12 16 15 10 8 9 11 16 19 14 7 6 8 5 3 3 1 2 6 9 10 10 2 -4 9 27 30 26 24 24 23 22 22 23 24 25 25 25 24 23 21 20 20 19 18 16 15 14 15 14 9 8 14 22 23 20 17 18 18 19 20 23 24 25 27 28 29 30 31 32 33 33 32 32 32 33 32 30
18 16 19 19 14 11 10 12 13 14 11 9 10 11 13 16 14 8 3 3 2 -0 -1 2 5 9 10 9 6 1 -2 8 30 40 32 22 20 20 20 20 19 19 21 21 22 23 24 24 23 23 21 18 16 15 15 15 14 9 7 13 21 24 23 23 25 25 25 26 27 27 28 30 32 32 33 34 33 32 30 30 31 31 31 31 33 33
16 18 18 15 12 11 9 9 12 12 10 10 10 9 9 12 9 3 1 1 1 3 3 3 4 4 3 5 9 15 24 36 41 36 27 23 21 21 23 23 21 21 22 23 23 23 24 24 24 21 18 17 16 15 15 15 10 6 10 20 26 26 26 26 24 21 20 20 20 19 20 22 23 23 22 20 19 18 18 18 19 21 22 23 25 28
20 22 19 15 15 16 15 15 15 15 12 10 10 9 8 8 6 5 6 6 6 8 8 10 14 18 20 27 35 42 45 41 34 29 27 25 23 23 25 24 23 24 24 24 25 25 25 24 20 17 16 17 16 15 14 11 6 8 19 27 27 24 21 17 14 14 14 13 13 14 15 15 14 13 13 13 13 13 14 15 16 17 18 19 21 23
23 22 19 19 20 21 23 23 19 19 21 21 21 23 24 24 24 25 25 26 27 29 30 32 37 40 41 42 42 40 35 29 27 27 25 22 22 23 22 21 22 23 23 24 25 24 22 20 16 16 18 17 15 14 12 8 8 17 27 26 20 15 14 12 13 14 12 12 12 13 13 14 13 12 12 12 13 13 13 14 16 18 18 17 17 19
22 19 18 19 18 17 19 19 15 16 20 21 22 24 26 27 30 32 34 36 37 36 37 40 42 41 39 36 32 28 25 23 22 21 20 20 21 20 20 21 23 23 24 24 23 21 20 18 18 18 17 14 13 12 8 8 16 25 25 18 14 13 13 13 15 14 13 13 14 14 15 16 15 14 13 12 11 12 12 13 15 19 21 21 19 19
21 19 16 15 15 14 14 14 12 13 18 20 19 17 17 21 25 30 32 32 31 33 40 44 38 26 19 16 15 17 21 21 20 20 21 22 22 21 22 25 26 26 25 23 20 19 20 19 19 18 14 13 13 10 9 15 23 23 17 13 13 14 13 14 15 15 15 15 15 15 16 16 16 15 14 13 13 12 11 12 14 17 21 22 20 19
18 15 13 11 11 12 13 12 7 5 10 18 19 17 19 24 27 30 31 30 30 34 38 33 20 9 9 12 13 16 19 20 19 20 21 21 22 23 24 26 27 27 24 20 19 20 20 19 17 14 13 14 12 8 13 22 23 16 12 13 14 13 12 12 14 15 15 15 16 16 16 16 17 17 15 14 13 12 12 12 12 14 18 19 18 16
17 14 12 10 7 7 8 8 5 2 7 15 18 18 23 28 29 31 30 28 29 32 31 24 16 15 21 24 22 20 20 20 20 21 22 23 23 23 24 25 25 23 20 19 20 19 17 16 15 13 13 13 10 11 19 23 17 11 11 12 12 11 10 10 11 13 14 14 13 14 15 16 17 17 17 16 15 13 13 12 12 11 13 16 16 15
19 15 11 8 6 5 7 9 11 12 14 16 16 17 23 28 32 34 31 26 24 27 28 26 24 24 27 29 26 23 22 21 21 22 24 26 25 24 23 22 21 20 19 18 18 16 13 13 14 15 15 13 10 13 19 18 11 9 10 9 10 12 11 8 9 11 13 14 13 12 11 11 12 13 14 14 14 15 14 14 14 13 12 12 13 14
Height
5739 5737 5734 5731 5731 5728 5726 5724 5722 5720 5718 5716 5715 5713 5712 5710 5709 5707 5705 5703 5701 5700 5701 5699 5698 5700 5699 5697 5695 5692 5691 5689 5686 5684 5682 5680 5679 5677 5676 5674 5672 5670 5668 5667 5667 5665 5664 5663 5662 5661 5661 5661 5661 5660 5660 5660 5660 5660 5660 5660 5660 5660 5659 5659 5659 5659 5659 5659 5659 5659 5659 5660 5660 5659 5660 5660 5660 5660 5660 5660 5660 5661 5662 5662 5663 5664
5736 5735 5731 5729 5727 5725 5723 5721 5719 5717 5715 5713 5712 5710 5709 5707 5705 5704 5702 5700 5698 5696 5697 5695 5694 5697 5697 5695 5693 5690 5687 5684 5681 5680 5678 5677 5676 5674 5673 5671 5669 5667 5666 5664 5663 5662 5662 5660 5659 5658 5657 5656 5656 5655 5654 5654 5654 5654 5654 5654 5654 5653 5653 5653 5653 5652 5652 5652 5652 5653 5653 5653 5653 5653 5654 5654 5654 5654 5654 5654 5654 5655 5656 5657 5658 5658
5734 5731 5728 5726 5724 5722 5720 5718 5716 5714 5711 5710 5708 5707 5706 5704 5701 5700 5699 5697 5695 5693 5693 5691 5690 5693 5695 5694 5692 5687 5682 5678 5676 5676 5675 5674 5672 5670 5670 5668 5666 5665 5663 5662 5661 5660 5659 5658 5657 5656 5654 5653 5652 5651 5650 5649 5649 5648 5648 5647 5647 5647 5646 5646 5646 5646 5646 5646 5646 5646 5646 5646 5646 5647 5648 5648 5648 5648 5648 5648 5648 5649 5651 5652 5652 5652
5731 5728 5725 5723 5721 5719 5717 5715 5713 5710 5708 5706 5705 5704 5702 5700 5697 5696 5695 5693 5691 5689 5688 5687 5685 5688 5692 5692 5690 5683 5677 5675 5673 5671 5670 5669 5668 5667 5666 5664 5663 5662 5661 5659 5658 5657 5656 5655 5654 5653 5652 5650 5649 5648 5647 5645 5644 5643 5642 5641 5641 5640 5640 5640 5640 5640 5640 5640 5639 5639 5640 5640 5640 5642 5642 5642 5643 5643 5643 5643 5643 5643 5644 5645 5645 5645
5727 5723 5721 5719 5717 5715 5713 5711 5709 5706 5704 5702 5701 5700 5698 5696 5693 5692 5690 5688 5686 5685 5683 5682 5679 5681 5687 5689 5687 5679 5673 5672 5670 5668 5667 5664 5663 5662 5661 5659 5658 5658 5657 5656 5655 5653 5652 5651 5650 5648 5647 5646 5645 5644 5643 5641 5640 5639 5638 5636 5636 5635 5635 5635 5634 5634 5633 5633 5633 5633 5634 5634 5634 5635 5636 5636 5637 5637 5636 5636 5636 5636 5636 5637 5637 5637
5724 5720 5717 5716 5713 5711 5709 5708 5705 5701 5700 5699 5697 5696 5693 5692 5689 5687 5685 5682 5681 5680 5679 5677 5673 5674 5679 5683 5683 5674 5667 5668 5667 5664 5663 5661 5659 5658 5655 5653 5652 5651 5651 5651 5650 5649 5647 5646 5645 5643 5642 5641 5640 5639 5638 5637 5635 5634 5634 5632 5631 5630 5630 5629 5628 5627 5626 5627 5627 5627 5627 5628 5628 5629 5629 5630 5629 5629 5629 5628 5628 5628 5628 5629 5630 5630
5719 5716 5714 5712 5709 5707 5705 5703 5700 5697 5695 5694 5693 5691 5688 5687 5685 5682 5680 5677 5676 5674 5673 5671 5668 5666 5668 5673 5675 5668 5662 5663 5662 5660 5660 5657 5655 5654 5651 5649 5647 5645 5644 5644 5643 5643 5642 5641 5639 5638 5636 5635 5634 5633 5632 5631 5630 5629 5628 5627 5626 5625 5624 5623 5622 5621 5621 5621 5621 5620 5621 5621 5621 5622 5623 5622 5622 5621 5621 5620 5620 5621 5621 5622 5623 5624
5715 5712 5711 5708 5706 5704 5701 5699 5696 5693 5690 5689 5688 5686 5683 5682 5679 5677 5675 5672 5670 5669 5667 5666 5664 5659 5658 5662 5663 5659 5658 5658 5655 5654 5653 5652 5650 5648 5647 5645 5642 5640 5638 5637 5636 5635 5635 5634 5633 5631 5630 5629 5628 5627 5626 5626 5624 5623 5623 5622 5621 5620 5619 5617 5616 5615 5615 5614 5614 5614 5614 5614 5614 5615 5615 5615 5614 5614 5614 5613 5614 5614 5614 5615 5616 5616
5710 5709 5707 5704 5702 5699 5697 5694 5691 5688 5686 5684 5682 5680 5678 5676 5673 5671 5669 5666 5664 5662 5661 5662 5660 5652 5649 5653 5652 5649 5650 5651 5650 5647 5645 5644 5643 5641 5640 5638 5636 5634 5633 5631 5629 5628 5627 5627 5626 5624 5623 5623 5622 5621 5620 5619 5618 5617 5616 5616 5615 5614 5613 5611 5610 5609 5608 5608 5608 5607 5607 5607 5608 5608 5608 5608 5608 5607 5607 5607 5608 5607 5608 5608 5609 5609
5707 5705 5703 5700 5698 5695 5692 5689 5687 5684 5681 5679 5676 5674 5672 5669 5667 5665 5662 5660 5657 5654 5654 5657 5653 5644 5641 5645 5645 5642 5642 5641 5641 5641 5638 5635 5634 5633 5632 5631 5629 5628 5626 5625 5623 5621 5620 5619 5618 5617 5615 5615 5614 5614 5612 5611 5610 5609 5609 5608 5608 5607 5606 5605 5604 5603 5603 5602 5601 5601 5601 5601 5601 5600 5600 5601 5601 5601 5601 5601 5601 5601 5601 5601 5602 5602
5704 5701 5699 5696 5693 5690 5687 5685 5682 5679 5676 5673 5670 5668 5665 5662 5660 5658 5655 5654 5650 5647 5649 5649 5645 5638 5633 5635 5638 5636 5635 5633 5632 5631 5629 5627 5624 5623 5623 5622 5620 5619 5618 5616 5615 5613 5612 5610 5610 5609 5607 5606 5606 5605 5605 5604 5603 5601 5601 5600 5600 5599 5598 5597 5597 5597 5597 5596 5595 5595 5594 5594 5594 5593 5593 5593 5594 5594 5594 5594 5594 5594 5594 5594 5595 5595
5701 5698 5695 5692 5689 5686 5682 5680 5677 5674 5671 5667 5664 5661 5658 5655 5652 5650 5648 5646 5641 5640 5642 5641 5636 5631 5627 5628 5629 5628 5627 5625 5623 5621 5619 5618 5615 5613 5612 5611 5609 5609 5609 5608 5607 5605 5604 5602 5600 5599 5598 5597 5597 5596 5596 5595 5594 5593 5592 5592 5591 5590 5589 5590 5589 5589 5589 5589 5588 5588 5587 5587 5587 5586 5586 5586 5587 5587 5587 5587 5587 5586 5586 5587 5587 5587
5698 5694 5690 5686 5684 5681 5678 5674 5671 5668 5665 5661 5658 5655 5650 5647 5643 5641 5640 5638 5634 5634 5634 5632 5628 5623 5620 5621 5621 5620 5618 5616 5614 5612 5610 5609 5606 5603 5601 5599 5597 5597 5597 5597 5597 5596 5595 5594 5592 5590 5589 5588 5587 5587 5586 5586 5585 5584 5583 5583 5582 5581 5581 5581 5581 5581 5581 5581 5581 5581 5580 5580 5579 5579 5579 5579 5579 5579 5579 5579 5579 5579 5579 5579 5579 5580
5694 5691 5686 5681 5678 5675 5671 5668 5663 5659 5657 5653 5651 5647 5643 5639 5633 5630 5631 5629 5626 5626 5626 5624 5619 5614 5614 5613 5613 5611 5609 5607 5605 5603 5601 5599 5597 5594 5592 5589 5586 5585 5584 5583 5584 5584 5584 5585 5584 5582 5581 5579 5578 5577 5576 5576 5575 5575 5574 5573 5572 5572 5572 5572 5572 5573 5573 5573 5573 5572 5572 5572 5571 5571 5571 5571 5572 5571 5571 5571 5571 5571 5571 5571 5572 5572
5688 5686 5682 5677 5672 5669 5665 5661 5656 5652 5649 5646 5643 5639 5636 5633 5625 5620 5620 5618 5617 5617 5617 5617 5612 5607 5606 5604 5604 5603 5600 5598 5596 5593 5591 5589 5587 5585 5582 5580 5577 5575 5574 5572 5572 5572 5572 5573 5573 5573 5572 5570 5569 5567 5566 5566 5565 5564 5564 5564 5563 5562 5562 5562 5562 5563 5563 5564 5563 5563 5563 5563 5563 5563 5563 5563 5563 5563 5563 5563 5563 5563 5563 5563 5564 5564
5682 5681 5678 5672 5667 5665 5660 5655 5650 5646 5642 5638 5636 5633 5629 5626 5620 5613 5611 5609 5606 5604 5605 5609 5604 5599 5597 5594 5594 5594 5591 5589 5586 5583 5581 5578 5576 5575 5572 5571 5568 5566 5564 5562 5561 5561 5561 5560 5560 5561 5561 5561 5560 5558 5557 5556 5555 5554 5554 5553 5553 5552 5552 5552 5552 5553 5553 5554 5554 5553 5554 5553 5553 5553 5554 5554 5554 5554 5554 5554 5554 5555 5555 5555 5555 5555
5673 5675 5674 5667 5661 5658 5655 5650 5645 5640 5636 5632 5630 5627 5622 5618 5614 5608 5603 5602 5599 5592 5593 5598 5596 5592 5589 5584 5584 5585 5582 5579 5577 5573 5570 5567 5565 5564 5562 5560 5558 5556 5555 5553 5551 5550 5549 5549 5549 5548 5549 5549 5549 5548 5547 5546 5545 5545 5544 5543 5543 5542 5542 5542 5542 5542 5543 5543 5543 5543 5543 5543 5543 5543 5543 5543 5543 5544 5544 5544 5545 5546 5546 5546 5547 5546
5663 5665 5669 5664 5655 5652 5648 5644 5640 5635 5630 5627 5623 5619 5615 5610 5607 5601 5595 5593 5592 5584 5582 5586 5586 5583 5581 5576 5575 5575 5572 5569 5566 5563 5560 5557 5555 5553 5551 5549 5547 5546 5545 5543 5542 5540 5539 5539 5538 5538 5537 5537 5537 5537 5536 5535 5534 5533 5532 5532 5531 5531 5531 5531 5531 5531 5531 5531 5531 5531 5531 5531 5531 5532 5532 5532 5532 5532 5533 5534 5534 5535 5535 5536 5536 5536
5655 5654 5660 5660 5651 5646 5643 5638 5634 5629 5625 5621 5616 5613 5608 5603 5600 5595 5588 5584 5582 5577 5574 5576 5576 5574 5572 5570 5567 5564 5562 5559 5557 5554 5551 5549 5546 5544 5541 5539 5536 5535 5533 5532 5531 5529 5528 5528 5527 5527 5527 5526 5526 5525 5525 5524 5523 5522 5521 5521 5520 5520 5519 5519 5519 5519 5519 5520 5520 5520 5520 5520 5520 5520 5520 5520 5520 5520 5521 5523 5523 5524 5525 5525 5525 5525
5650 5644 5649 5653 5647 5640 5636 5631 5627 5623 5619 5615 5611 5606 5602 5597 5592 5589 5583 5577 5572 5568 5564 5563 5564 5565 5564 5562 5559 5556 5553 5551 5548 5545 5542 5539 5537 5534 5531 5529 5527 5525 5523 5521 5520 5519 5517 5516 5515 5515 5515 5515 5514 5514 5514 5513 5512 5512 5511 5510 5509 5509 5508 5508 5507 5507 5507 5508 5509 5509 5509 5509 5508 5509 5509 5509 5508 5509 5510 5511 5512 5513 5514 5513 5513 5514
5647 5639 5638 5643 5641 5635 5630 5624 5620 5616 5612 5608 5604 5599 5595 5590 5584 5580 5577 5573 5566 5560 5556 5551 5550 5554 5555 5552 5549 5547 5543 5540 5537 5534 5531 5528 5525 5523 5520 5518 5516 5514 5513 5511 5509 5507 5506 5503 5502 5501 5501 5501 5502 5501 5502 5502 5501 5500 5499 5499 5498 5497 5497 5496 5496 5496 5495 5496 5496 5497 5497 5497 5496 5496 5497 5497 5497 5498 5499 5499 5500 5501 5501 5502 5503 5503
5641 5635 5631 5633 5633 5630 5625 5619 5614 5609 5605 5602 5598 5592 5588 5583 5578 5571 5568 5566 5561 5554 5550 5544 5540 5542 5545 5542 5539 5536 5532 5529 5526 5523 5521 5517 5514 5512 5509 5507 5505 5503 5502 5500 5498 5496 5494 5491 5489 5488 5487 5487 5487 5487 5488 5489 5489 5488 5488 5487 5487 5486 5485 5485 5484 5484 5484 5484 5484 5484 5485 5485 5484 5484 5485 5486 5486 5486 5487 5487 5488 5489 5489 5491 5492 5492
5635 5630 5626 5625 5625 5622 5618 5613 5608 5603 5598 5594 5590 5586 5581 5576 5571 5565 5559 5557 5554 5549 5545 5539 5532 5532 5534 5532 5528 5524 5521 5518 5514 5512 5510 5507 5504 5501 5499 5497 5494 5492 5491 5489 5487 5485 5482 5479 5478 5477 5476 5475 5474 5474 5473 5474 5475 5475 5475 5475 5474 5474 5473 5473 5473 5472 5472 5472 5471 5471 5472 5472 5472 5473 5473 5474 5474 5475 5475 5475 5476 5476 5477 5479 5480 5480
5629 5623 5619 5617 5617 5617 5613 5606 5601 5596 5591 5586 5582 5579 5573 5568 5564 5559 5553 5548 5544 5541 5539 5532 5525 5523 5523 5521 5516 5512 5509 5506 5503 5501 5499 5496 5494 5491 5489 5487 5484 5482 5480 5477 5476 5473 5470 5468 5467 5466 5466 5465 5464 5462 5461 5460 5460 5461 5461 5461 5461 5461 5461 5461 5460 5460 5459 5459 5459 5459 5459 5459 5459 5460 5461 5461 5462 5462 5463 5463 5464 5464 5466 5467 5467 5469
5624 5618 5611 5607 5605 5606 5606 5601 5594 5588 5583 5578 5574 5571 5567 5561 5556 5550 5546 5540 5533 5532 5530 5522 5517 5516 5513 5508 5506 5503 5499 5496 5493 5491 5489 5486 5484 5482 5479 5477 5475 5472 5469 5466 5464 5462 5460 5458 5457 5455 5454 5453 5452 5450 5449 5448 5447 5447 5447 5448 5448 5448 5449 5449 5448 5447 5447 5446 5446 5446 5446 5446 5446 5447 5447 5448 5449 5450 5450 5451 5452 5452 5453 5454 5455 5457
5620 5614 5607 5601 5595 5592 5591 5590 5585 5580 5576 5571 5566 5562 5558 5554 5548 5542 5536 5531 5525 5522 5520 5514 5508 5508 5503 5497 5495 5493 5489 5487 5484 5481 5479 5477 5475 5472 5469 5466 5464 5461 5459 5456 5454 5452 5450 5448 5446 5444 5443 5441 5439 5438 5437 5435 5434 5433 5433 5434 5435 5435 5435 5435 5435 5435 5434 5433 5433 5433 5432 5432 5432 5433 5434 5435 5436 5437 5438 5439 5439 5440 5441 5442 5443 5445
5613 5609 5603 5597 5591 5586 5582 5580 5575 5570 5566 5563 5557 5552 5548 5544 5540 5535 5529 5523 5518 5513 5511 5507 5500 5497 5495 5489 5485 5484 5480 5477 5475 5472 5470 5468 5465 5462 5459 5456 5453 5450 5447 5445 5443 5441 5440 5438 5436 5434 5432 5430 5428 5426 5425 5423 5422 5421 5420 5421 5421 5421 5421 5421 5421 5421 5421 5420 5420 5419 5418 5419 5419 5419 5420 5421 5422 5423 5424 5425 5426 5427 5428 5429 5431 5433
5605 5602 5598 5591 5586 5581 5575 5571 5567 5561 5556 5554 5549 5544 5540 5535 5531 5526 5520 5515 5510 5504 5501 5499 5492 5487 5485 5480 5475 5473 5470 5467 5465 5463 5461 5459 5457 5454 5451 5447 5444 5440 5437 5435 5433 5431 5429 5427 5425 5424 5422 5420 5419 5417 5415 5412 5410 5409 5408 5407 5407 5407 5408 5408 5408 5407 5407 5407 5406 5405 5405 5405 5405 5405 5406 5407 5408 5410 5411 5412 5412 5414 5415 5416 5418 5420
5597 5594 5590 5585 5581 5576 5569 5563 5559 5553 5548 5545 5540 5535 5531 5527 5521 5517 5511 5506 5501 5496 5491 5489 5484 5479 5475 5471 5466 5463 5459 5455 5454 5452 5451 5449 5447 5444 5441 5437 5434 5431 5428 5426 5423 5421 5418 5416 5415 5413 5411 5409 5408 5407 5405 5403 5401 5399 5397 5395 5394 5393 5393 5393 5393 5393 5393 5393 5392 5392 5391 5391 5391 5391 5392 5393 5394 5395 5396 5398 5399 5400 5402 5403 5405 5406
5590 5585 5580 5575 5573 5571 5564 5557 5551 5546 5541 5537 5532 5526 5522 5517 5512 5507 5501 5496 5492 5488 5482 5477 5474 5470 5465 5461 5458 5453 5448 5444 5442 5441 5440 5438 5436 5433 5429 5426 5423 5421 5418 5415 5413 5411 5409 5407 5405 5403 5401 5398 5397 5395 5394 5392 5391 5389 5387 5385 5383 5381 5380 5379 5379 5379 5378 5378 5377 5377 5377 5377 5377 5378 5378 5379 5380 5381 5382 5383 5385 5387 5388 5390 5391 5392
5582 5577 5572 5565 5561 5562 5558 5550 5543 5537 5532 5528 5523 5517 5512 5507 5501 5497 5492 5486 5482 5479 5474 5468 5464 5461 5456 5452 5448 5444 5439 5435 5433 5431 5431 5428 5425 5420 5417 5415 5412 5409 5407 5404 5401 5399 5398 5396 5395 5393 5391 5389 5387 5385 5383 5381 5379 5377 5376 5374 5372 5369 5368 5366 5365 5365 5364 5363 5362 5362 5362 5362 5362 5363 5364 5365 5367 5368 5369 5370 5372 5374 5375 5377 5378 5379
5574 5568 5563 5556 5550 5550 5548 5540 5534 5528 5522 5517 5513 5507 5502 5497 5492 5487 5483 5476 5471 5467 5464 5460 5454 5450 5447 5443 5439 5436 5431 5426 5423 5421 5420 5418 5414 5408 5405 5405 5402 5398 5395 5393 5390 5387 5385 5385 5384 5382 5381 5379 5377 5375 5373 5371 5369 5367 5364 5362 5360 5357 5356 5354 5352 5351 5350 5349 5348 5347 5347 5347 5347 5348 5349 5350 5352 5354 5355 5357 5359 5361 5363 5364 5365 5367
5567 5560 5554 5547 5539 5538 5537 5529 5522 5517 5512 5507 5503 5497 5492 5487 5483 5479 5474 5469 5462 5456 5452 5450 5445 5440 5436 5432 5428 5425 5422 5417 5414 5412 5410 5406 5402 5398 5394 5392 5390 5388 5384 5381 5377 5375 5374 5373 5371 5369 5368 5366 5365 5363 5362 5360 5358 5356 5353 5351 5348 5346 5343 5342 5341 5339 5338 5336 5334 5333 5333 5332 5333 5334 5334 5335 5337 5339 5342 5344 5346 5348 5349 5351 5353 5355
5560 5552 5545 5537 5528 5525 5524 5518 5511 5506 5501 5496 5492 5487 5482 5477 5472 5469 5466 5461 5455 5448 5443 5439 5434 5430 5425 5421 5415 5412 5410 5407 5404 5403 5400 5394 5390 5387 5384 5381 5378 5376 5373 5369 5365 5364 5362 5361 5359 5357 5355 5354 5352 5351 5349 5347 5345 5344 5342 5339 5337 5334 5332 5331 5329 5327 5325 5324 5322 5320 5319 5319 5320 5321 5321 5321 5322 5325 5328 5330 5333 5335 5336 5338 5340 5342
5551 5543 5535 5528 5519 5513 5510 5505 5498 5494 5490 5484 5479 5475 5471 5466 5460 5456 5455 5453 5446 5439 5434 5429 5424 5419 5415 5412 5407 5402 5398 5395 5394 5393 5389 5383 5378 5375 5372 5369 5367 5364 5361 5358 5354 5352 5350 5348 5347 5345 5344 5342 5341 5339 5337 5335 5333 5332 5330 5327 5325 5323 5321 5319 5318 5315 5313 5311 5309 5307 5306 5306 5307 5308 5309 5309 5309 5311 5313 5316 5318 5321 5323 5325 5328 5330
5542 5534 5525 5518 5511 5503 5498 5494 5488 5482 5477 5473 5469 5464 5460 5455 5450 5444 5443 5445 5440 5430 5423 5419 5414 5410 5406 5402 5399 5393 5387 5384 5385 5385 5380 5374 5369 5364 5360 5358 5355 5353 5350 5347 5344 5341 5339 5337 5335 5333 5332 5331 5329 5328 5326 5324 5322 5320 5319 5316 5314 5312 5310 5308 5306 5303 5300 5299 5297 5295 5294 5294 5295 5296 5296 5296 5297 5298 5299 5301 5304 5306 5309 5312 5315 5317
5532 5525 5516 5508 5501 5494 5487 5483 5480 5474 5469 5463 5459 5455 5449 5445 5440 5432 5429 5432 5431 5421 5413 5407 5403 5400 5396 5391 5387 5383 5376 5371 5372 5374 5371 5365 5359 5354 5350 5346 5342 5340 5338 5336 5332 5330 5327 5325 5323 5321 5320 5319 5318 5316 5314 5313 5311 5309 5308 5306 5304 5303 5300 5297 5295 5292 5289 5286 5284 5283 5282 5282 5283 5284 5284 5284 5285 5286 5286 5288 5289 5292 5294 5298 5301 5304
5523 5515 5507 5499 5492 5486 5479 5473 5470 5466 5461 5455 5450 5446 5441 5436 5432 5424 5417 5417 5416 5409 5402 5397 5391 5388 5384 5379 5376 5372 5365 5360 5359 5360 5357 5352 5347 5343 5338 5334 5330 5327 5325 5323 5320 5319 5317 5315 5313 5311 5309 5308 5306 5304 5302 5301 5300 5298 5297 5295 5293 5292 5290 5286 5283 5280 5277 5275 5272 5270 5270 5270 5271 5272 5272 5272 5273 5274 5274 5275 5277 5278 5280 5283 5286 5290
5514 5506 5499 5492 5485 5479 5473 5467 5462 5457 5452 5447 5442 5438 5433 5428 5424 5417 5410 5408 5405 5399 5394 5388 5381 5376 5371 5367 5363 5359 5353 5346 5344 5346 5344 5338 5334 5329 5325 5321 5318 5315 5313 5311 5308 5306 5305 5304 5303 5301 5299 5297 5296 5294 5292 5291 5289 5287 5286 5284 5282 5281 5279 5275 5272 5269 5266 5264 5262 5260 5260 5260 5260 5261 5261 5261 5262 5262 5263 5264 5265 5266 5267 5269 5271 5275
5504 5497 5491 5484 5478 5472 5466 5461 5457 5452 5446 5440 5435 5430 5425 5420 5418 5410 5401 5396 5394 5390 5384 5377 5370 5365 5359 5354 5350 5347 5342 5334 5329 5329 5329 5324 5320 5317 5312 5308 5305 5302 5300 5299 5296 5294 5293 5293 5292 5291 5290 5288 5286 5285 5283 5282 5280 5278 5276 5275 5273 5271 5268 5265 5262 5259 5257 5256 5254 5253 5252 5251 5251 5252 5251 5252 5252 5252 5252 5253 5254 5255 5256 5257 5258 5261
5493 5487 5481 5475 5470 5465 5459 5454 5450 5446 5439 5432 5427 5423 5417 5411 5409 5403 5392 5385 5381 5376 5371 5365 5358 5352 5347 5342 5337 5333 5330 5325 5318 5315 5313 5310 5306 5304 5301 5297 5293 5290 5288 5286 5284 5282 5281 5282 5281 5280 5279 5278 5277 5276 5275 5273 5272 5270 5268 5267 5265 5262 5260 5257 5255 5252 5250 5249 5247 5246 5245 5244 5244 5243 5243 5242 5243 5243 5242 5242 5243 5244 5245 5245 5247 5249
5480 5476 5471 5465 5460 5455 5451 5446 5442 5437 5432 5425 5421 5418 5412 5404 5398 5392 5384 5377 5371 5364 5359 5353 5347 5341 5336 5330 5325 5320 5316 5313 5309 5304 5300 5296 5293 5291 5290 5286 5283 5280 5278 5276 5274 5272 5270 5271 5271 5270 5270 5269 5268 5268 5266 5265 5264 5263 5261 5259 5257 5254 5252 5250 5247 5245 5243 5241 5240 5238 5237 5236 5235 5235 5234 5233 5233 5233 5233 5233 5233 5234 5234 5235 5236 5238
5472 5468 5464 5458 5452 5447 5443 5439 5433 5428 5423 5418 5413 5410 5405 5399 5391 5382 5374 5368 5363 5356 5349 5342 5337 5332 5325 5318 5314 5309 5304 5301 5298 5293 5288 5284 5281 5279 5278 5276 5273 5271 5269 5267 5264 5262 5261 5261 5261 5261 5261 5261 5260 5259 5258 5257 5256 5255 5254 5252 5249 5247 5245 5243 5240 5238 5236 5234 5233 5231 5230 5229 5228 5227 5227 5226 5226 5226 5225 5225 5225 5225 5226 5226 5227 5228
5468 5462 5457 5452 5446 5441 5437 5434 5429 5422 5417 5413 5407 5401 5397 5392 5384 5375 5366 5358 5353 5347 5340 5332 5327 5322 5315 5308 5302 5297 5293 5289 5286 5281 5277 5273 5271 5269 5268 5266 5263 5261 5260 5258 5256 5254 5252 5252 5253 5253 5253 5253 5252 5252 5251 5250 5249 5249 5247 5245 5243 5241 5238 5236 5234 5232 5231 5229 5227 5226 5224 5223 5222 5222 5221 5221 5220 5220 5220 5219 5219 5219 5219 5219 5219 5220
5463 5458 5453 5448 5444 5439 5434 5430 5424 5419 5415 5412 5406 5399 5392 5385 5378 5369 5360 5350 5343 5337 5330 5322 5316 5311 5305 5298 5292 5286 5282 5278 5274 5271 5267 5264 5262 5260 5258 5256 5254 5252 5251 5250 5248 5246 5245 5245 5245 5246 5246 5246 5245 5245 5244 5243 5243 5242 5240 5238 5236 5235 5233 5231 5229 5227 5226 5224 5222 5221 5220 5219 5218 5217 5217 5217 5216 5216 5215 5214 5214 5213 5213 5213 5213 5213
5460 5455 5451 5446 5441 5437 5433 5427 5420 5414 5410 5406 5400 5393 5385 5377 5368 5360 5351 5342 5334 5327 5320 5312 5305 5299 5294 5288 5282 5276 5272 5268 5265 5262 5259 5255 5253 5252 5250 5248 5246 5244 5243 5242 5241 5240 5239 5239 5239 5239 5239 5239 5238 5238 5238 5237 5236 5235 5234 5232 5231 5229 5227 5226 5224 5223 5221 5219 5218 5217 5216 5215 5214 5213 5213 5212 5212 5211 5211 5210 5209 5208 5208 5208 5207 5207
5457 5452 5447 5441 5435 5428 5424 5419 5413 5407 5401 5396 5389 5382 5374 5366 5358 5349 5339 5330 5323 5315 5309 5302 5295 5289 5283 5279 5273 5268 5264 5261 5257 5254 5251 5248 5246 5244 5242 5240 5239 5237 5236 5235 5234 5234 5234 5233 5233 5233 5233 5233 5232 5232 5232 5231 5230 5229 5228 5227 5226 5224 5223 5221 5220 5218 5217 5215 5214 5213 5211 5210 5210 5209 5208 5208 5207 5207 5206 5205 5205 5204 5203 5203 5202 5202
5449 5444 5439 5434 5428 5422 5416 5411 5405 5400 5396 5389 5380 5370 5361 5352 5344 5335 5327 5319 5311 5304 5298 5293 5287 5281 5276 5271 5267 5262 5258 5254 5251 5247 5244 5242 5240 5238 5236 5234 5232 5231 5230 5229 5229 5229 5228 5228 5228 5228 5228 5228 5227 5227 5226 5225 5224 5223 5223 5223 5221 5220 5218 5217 5215 5214 5213 5212 5210 5209 5207 5206 5205 5205 5204 5203 5203 5202 5202 5201 5200 5199 5198 5198 5198 5198
5443 5438 5432 5426 5422 5416 5410 5403 5394 5387 5383 5379 5371 5361 5352 5341 5331 5323 5316 5309 5302 5295 5289 5285 5280 5275 5270 5265 5261 5257 5252 5248 5245 5241 5238 5236 5234 5232 5230 5229 5227 5226 5225 5225 5225 5224 5224 5224 5223 5223 5223 5223 5222 5222 5221 5220 5219 5219 5219 5218 5217 5216 5214 5213 5211 5210 5209 5208 5207 5205 5204 5203 5202 5201 5200 5199 5199 5198 5197 5197 5196 5195 5194 5194 5194 5193
5440 5433 5426 5419 5412 5406 5399 5392 5384 5375 5369 5366 5360 5353 5345 5335 5324 5316 5309 5302 5295 5289 5283 5277 5273 5269 5265 5261 5257 5252 5247 5243 5240 5236 5233 5231 5228 5226 5224 5223 5223 5222 5221 5221 5221 5220 5220 5219 5219 5219 5219 5218 5218 5218 5217 5216 5216 5215 5215 5214 5213 5212 5211 5209 5208 5206 5205 5204 5203 5202 5201 5199 5198 5197 5196 5195 5195 5194 5193 5192 5192 5191 5191 5190 5190 5190
5434 5427 5419 5411 5404 5398 5392 5387 5382 5374 5366 5360 5354 5347 5339 5329 5319 5311 5304 5297 5290 5284 5278 5272 5267 5263 5259 5256 5253 5247 5242 5238 5235 5232 5229 5227 5225 5222 5220 5219 5219 5219 5218 5218 5217 5217 5216 5216 5215 5215 5215 5214 5214 5214 5213 5213 5212 5212 5211 5210 5209 5208 5207 5206 5204 5203 5202 5201 5200 5199 5198 5196 5195 5194 5193 5192 5191 5190 5189 5189 5188 5187 5187 5186 5186 5186